KF5NXR Weather Reports


Display with metric or nautical units.
time (UTC)temp
F
wind
direction
speed
MPH
gust
MPH
rain 1hr
in
rain 24hr
in
rain mn
in
humidity
%
barometer
mb
20220706134557 87 341 3.0 10.0 0.00 0.00 0.00 63 1018.5
20220706133055 86 323 1.0 10.0 0.00 0.00 0.00 64 1018.4
20220706131552 85 342 3.0 10.0 0.00 0.00 0.00 66 1018.4
20220706130050 84 340 1.0 11.0 0.00 0.00 0.00 68 1018.3
20220706124545 83 325 2.0 12.0 0.00 0.00 0.00 70 1018.0
20220706123044 82 339 5.0 9.0 0.00 0.00 0.00 71 1018.0
20220706121542 80 331 1.0 6.0 0.00 0.00 0.00 74 1017.8
20220706120041 79 337 2.0 6.0 0.00 0.00 0.00 76 1017.6
20220706114540 78 339 1.0 3.0 0.00 0.00 0.00 77 1017.5
20220706113039 78 339 1.0 4.0 0.00 0.00 0.00 77 1017.5
20220706111537 78 337 0.0 3.0 0.00 0.00 0.00 77 1017.3
20220706110035 78 341 1.0 4.0 0.00 0.00 0.00 77 1017.2
20220706104532 79 339 0.0 4.0 0.00 0.00 0.00 76 1017.0
20220706103029 79 343 1.0 6.0 0.00 0.00 0.00 75 1016.6
20220706101527 80 346 0.0 6.0 0.00 0.00 0.00 74 1016.6
20220706100032 80 337 1.0 7.0 0.00 0.00 0.00 72 1016.6
20220706094523 80 343 2.0 6.0 0.00 0.00 0.00 73 1016.5
20220706093025 81 339 1.0 7.0 0.00 0.00 0.00 73 1016.4
20220706091523 81 346 3.0 8.0 0.00 0.00 0.00 73 1016.4
20220706090021 81 340 2.0 6.0 0.00 0.00 0.00 72 1016.3
20220706084529 82 346 1.0 7.0 0.00 0.00 0.00 71 1016.3
20220706083020 82 341 3.0 8.0 0.00 0.00 0.00 71 1016.2
20220706081518 82 338 2.0 10.0 0.00 0.00 0.00 71 1016.0
20220706080024 82 345 3.0 9.0 0.00 0.00 0.00 71 1016.0
20220706074517 82 344 2.0 9.0 0.00 0.00 0.00 71 1015.8
20220706073018 82 351 2.0 7.0 0.00 0.00 0.00 70 1016.1
20220706071515 83 345 1.0 8.0 0.00 0.00 0.00 69 1016.0
20220706070014 83 343 2.0 8.0 0.00 0.00 0.00 68 1016.0
20220706064512 83 343 1.0 6.0 0.00 0.00 0.00 67 1015.9
20220706063017 82 346 0.0 3.0 0.00 0.00 0.00 67 1016.0
20220706061520 82 350 0.0 3.0 0.00 0.00 0.00 67 1016.1
20220706060009 81 346 0.0 2.0 0.00 0.00 0.00 68 1016.0
20220706054506 81 346 0.0 0.0 0.00 0.00 0.00 67 1016.1
20220706053006 82 346 0.0 0.0 0.00 0.00 0.00 65 1016.3
20220706051505 83 346 0.0 0.0 0.00 0.00 0.00 65 1016.5
20220706050100 82 346 0.0 0.0 0.00 0.00 0.00 65 1016.5
20220706044559 82 346 0.0 0.0 0.00 0.00 0.00 65 1016.5
20220706043105 83 346 0.0 0.0 0.00 0.00 0.00 64 1016.6
20220706041559 83 346 0.0 0.0 0.00 0.00 0.00 63 1016.5
20220706040057 83 346 0.0 0.0 0.00 0.00 0.00 63 1016.6
20220706034557 84 346 0.0 0.0 0.00 0.00 0.00 62 1016.4
20220706033056 85 346 0.0 0.0 0.00 0.00 0.00 61 1016.2
20220706031556 85 346 0.0 0.0 0.00 0.00 0.00 59 1016.1
20220706030056 86 346 0.0 0.0 0.00 0.00 0.00 58 1015.7
20220706024558 86 346 0.0 0.0 0.00 0.00 0.00 57 1015.5
20220706023055 87 346 0.0 0.0 0.00 0.00 0.00 55 1015.3
20220706021555 87 346 0.0 0.0 0.00 0.00 0.00 53 1015.1
20220706020054 88 346 0.0 0.0 0.00 0.00 0.00 52 1015.0
20220706014604 90 346 0.0 0.0 0.00 0.00 0.00 49 1014.9
20220706013052 92 346 0.0 2.0 0.00 0.00 0.00 47 1015.1
20220706011552 93 346 0.0 3.0 0.00 0.00 0.00 46 1015.0
20220706010051 94 350 0.0 2.0 0.00 0.00 0.00 45 1015.2
20220706004550 95 337 0.0 8.0 0.00 0.00 0.00 43 1015.1
20220706003051 96 346 0.0 6.0 0.00 0.00 0.00 43 1015.1
20220706001549 96 354 2.0 8.0 0.00 0.00 0.00 43 1015.1
20220706000049 97 170 0.0 6.0 0.00 0.00 0.00 43 1015.0
20220705234646 97 342 2.0 9.0 0.00 0.00 0.00 43 1015.2
20220705233048 98 344 1.0 7.0 0.00 0.00 0.00 43 1015.3
20220705231602 98 127 0.0 8.0 0.00 0.00 0.00 42 1015.4
20220705230043 98 11 2.0 9.0 0.00 0.00 0.00 41 1015.4
20220705224541 98 164 0.0 4.0 0.00 0.00 0.00 42 1015.6
20220705223040 99 341 5.0 12.0 0.00 0.00 0.00 42 1015.7
20220705221541 99 316 2.0 10.0 0.00 0.00 0.00 40 1015.9
20220705220038 99 348 2.0 9.0 0.00 0.00 0.00 40 1015.8
20220705214542 99 356 3.0 12.0 0.00 0.00 0.00 41 1015.9
20220705213035 100 340 2.0 8.0 0.00 0.00 0.00 41 1016.0
20220705211541 100 327 3.0 8.0 0.00 0.00 0.00 41 1016.2
20220705210037 100 187 0.0 8.0 0.00 0.00 0.00 40 1016.2
20220705204530 100 336 2.0 7.0 0.00 0.00 0.00 37 1016.5
20220705203028 100 325 1.0 8.0 0.00 0.00 0.00 38 1016.7
20220705201535 100 339 2.0 8.0 0.00 0.00 0.00 41 1016.9
20220705200024 100 331 0.0 7.0 0.00 0.00 0.00 41 1017.1
20220705194523 100 352 2.0 10.0 0.00 0.00 0.00 40 1017.1
20220705193021 99 335 0.0 12.0 0.00 0.00 0.00 43 1017.4
20220705191520 100 334 4.0 9.0 0.00 0.00 0.00 41 1017.6
20220705190016 99 337 3.0 10.0 0.00 0.00 0.00 42 1017.7
20220705184515 100 314 2.0 10.0 0.00 0.00 0.00 44 1018.0
20220705183030 99 335 2.0 10.0 0.00 0.00 0.00 46 1018.3
20220705181512 98 314 0.0 9.0 0.00 0.00 0.00 48 1018.5
20220705180009 98 338 3.0 12.0 0.00 0.00 0.00 44 1018.7
20220705174507 97 349 4.0 12.0 0.00 0.00 0.00 48 1018.8
20220705173006 98 339 4.0 10.0 0.00 0.00 0.00 46 1018.8
20220705171503 97 333 2.0 10.0 0.00 0.00 0.00 49 1019.1
20220705170001 98 347 4.0 10.0 0.00 0.00 0.00 48 1019.2
20220705164557 97 336 2.0 8.0 0.00 0.00 0.00 49 1019.2
20220705163054 96 318 3.0 9.0 0.00 0.00 0.00 49 1019.6
20220705161550 95 322 3.0 11.0 0.00 0.00 0.00 53 1019.5
20220705160048 94 333 2.0 10.0 0.00 0.00 0.00 55 1019.5
20220705154547 94 294 6.0 12.0 0.00 0.00 0.00 53 1019.6
20220705153044 94 320 4.0 11.0 0.00 0.00 0.00 55 1019.6
20220705151540 93 322 7.0 14.0 0.00 0.00 0.00 55 1019.7
20220705150037 92 319 1.0 11.0 0.00 0.00 0.00 58 1019.6
20220705144533 91 321 3.0 11.0 0.00 0.00 0.00 60 1019.8
20220705143035 89 345 4.0 11.0 0.00 0.00 0.00 62 1019.8
20220705141526 89 318 5.0 10.0 0.00 0.00 0.00 63 1019.6
20220705140024 88 337 2.0 12.0 0.00 0.00 0.00 66 1019.7